sat.trackr.live / text

‹ back to catalog

STARLINK-1480

NORAD 45741 · 2020-038M

PAYLOAD ACTIVE UNKNOWN

§ Identity

Operator
Country
US
Launch date
2020-06-13
Launch site
AFETR
Launch vehicle
Mass (kg)
RCS (m²)

Purposes: comms

External: N2YO · Heavens-Above · Gunter

§ Orbital elements

Epoch: 2026-09-12T15:28:05.192256Z

Period
91.36 min
Inclination
53.0474°
Eccentricity
0.0004104
Mean motion
15.76145311 rev/d
Perigee alt
338.6 km
Apogee alt
344.1 km
Semi-major
6,719.5 km
B*
4.7778e-4
RAAN
20.3670°
Arg perigee
342.8000°
Mean anomaly
17.2879°
Rev number
34,574

§ Raw data

STARLINK-14801 45741U 20038M   26255.64450454  .00076283  00000+0  47778-3 0  99972 45741  53.0474  20.3670 0004104 342.8000  17.2879 15.76145311345741

JSON: /api/v1/satellites/45741 · /tle

For live sub-satellite position, see the globe view (requires WebGL).

§ Visibility from observer

Set your observer location to see the next 7 days of passes ≥ 10°. The values pass through the URL so the page stays shareable.

No JS? Fill the form by hand. The geolocation button needs JavaScript.